Theta_e
319 319 321 321 323 324 324 324 326 328 326 327 331 330 330 332 332 337 337 337 338 337 331 330 333 332 332 333 329 327 326 327 331 324 322 325 326 326 326 321 319 316 310
320 318 321 321 321 324 324 326 326 328 329 329 329 329 331 333 336 337 334 336 336 335 331 335 334 331 332 329 327 326 326 331 328 322 324 326 326 326 322 321 320 314 311
321 320 320 320 323 324 323 325 325 328 329 329 330 329 331 333 336 337 335 334 334 332 333 330 325 328 327 327 325 326 330 330 324 325 326 326 325 323 322 320 317 312 308
321 322 321 319 320 319 323 326 327 328 328 329 329 328 331 332 335 337 336 334 334 332 329 327 329 326 325 325 326 330 330 325 325 326 326 326 324 323 320 318 314 309 309
321 321 322 322 321 323 324 326 327 327 328 329 329 328 329 332 336 337 335 336 331 327 328 331 327 326 325 326 331 330 326 326 327 327 326 325 324 323 322 318 310 310 309
322 321 323 323 321 324 324 325 327 328 328 329 328 329 331 333 336 336 334 333 333 326 329 327 328 326 326 331 333 327 326 326 326 326 326 325 325 325 319 310 311 310 309
321 321 324 321 322 326 326 326 328 328 329 329 329 330 333 333 334 333 332 331 328 326 328 330 330 327 330 331 330 326 326 326 327 327 326 326 326 323 314 311 310 310 310
322 323 323 323 324 324 325 326 328 328 329 329 331 333 332 332 333 331 330 328 329 329 330 329 329 330 332 332 329 328 327 328 327 326 327 327 322 317 312 310 310 310 310
322 323 323 325 325 325 326 326 328 330 329 327 333 332 331 331 332 331 329 331 328 330 331 330 330 330 330 328 329 329 328 327 326 327 327 319 314 313 311 310 310 310 310
325 324 324 324 325 326 325 326 327 329 330 328 331 330 329 330 330 331 332 329 330 331 331 331 331 330 330 328 329 329 327 326 327 327 322 313 311 310 310 310 310 310 309
326 325 325 324 324 325 325 325 326 330 330 331 330 329 329 327 330 329 329 330 330 328 329 328 331 328 327 327 330 328 326 327 327 323 312 311 310 310 311 310 311 310 310
327 327 326 325 324 325 325 327 328 326 328 330 328 326 326 327 327 329 329 328 328 329 330 330 330 329 329 330 329 329 328 326 323 313 310 310 311 311 311 311 311 310 307
326 327 326 326 325 326 326 326 326 327 329 327 326 325 325 328 328 328 330 329 329 330 330 330 330 329 329 330 330 328 325 322 314 310 310 311 311 312 312 312 310 308 304
326 327 327 325 324 324 326 326 327 327 327 322 324 324 325 325 329 329 328 330 329 329 328 329 329 329 328 329 327 325 323 318 311 310 311 312 313 313 313 311 308 305 304
326 328 327 327 326 330 324 326 327 327 328 325 323 327 328 327 326 328 329 329 328 328 328 327 326 326 327 326 323 317 314 311 310 312 313 314 315 313 312 310 306 305 303
323 326 327 326 326 327 328 329 328 328 328 328 329 329 329 329 329 329 328 327 327 327 326 325 323 324 324 322 314 319 319 312 312 313 315 316 314 312 310 309 307 305 300
326 324 326 325 326 327 327 328 327 327 327 329 329 329 329 329 328 327 327 326 327 325 325 322 321 324 321 317 310 318 317 315 314 315 316 316 313 312 310 308 307 304 300
327 327 325 326 327 327 327 328 328 329 329 329 329 328 328 328 327 327 326 325 325 325 325 321 320 319 320 319 319 322 321 321 319 316 318 318 314 311 309 307 306 302 299
327 328 328 328 327 323 326 328 328 329 330 331 330 330 328 329 329 328 327 325 323 321 322 320 318 319 320 319 318 317 316 317 317 317 319 318 315 311 308 306 304 301 299
320 325 326 328 329 324 322 328 330 330 330 330 331 330 330 329 327 326 325 320 317 318 319 319 319 319 318 317 319 319 318 318 318 318 319 318 315 311 308 305 303 301 299
320 319 317 320 319 322 320 317 317 318 320 324 327 328 328 327 324 320 315 318 311 319 320 320 319 319 320 318 317 320 319 319 318 318 313 316 314 310 308 304 302 301 300
320 320 320 320 319 318 318 318 318 317 317 317 317 317 318 318 317 317 319 318 319 321 321 320 320 321 321 320 320 320 320 319 318 316 315 313 309 308 305 303 302 301 300
321 320 319 319 313 315 317 318 319 320 320 318 318 319 319 318 317 317 316 315 317 317 318 318 322 322 321 323 320 318 318 318 318 318 316 313 311 307 305 303 301 301 300
319 320 321 320 317 312 312 314 315 315 316 316 315 314 314 313 311 310 309 309 309 310 311 310 311 314 311 313 311 313 315 317 316 316 315 312 311 309 307 304 302 301 300
319 320 321 318 315 308 308 309 310 310 311 310 308 307 308 309 311 310 310 310 310 311 311 312 313 313 313 313 311 309 314 314 315 314 313 310 309 307 307 307 303 301 300
318 318 319 317 312 307 305 305 305 310 305 305 306 307 309 311 313 313 314 314 314 314 314 314 314 314 313 313 311 310 308 311 312 311 310 307 308 307 306 306 305 303 301
Wind_Speed
5 6 10 14 20 19 17 15 13 14 17 18 19 18 18 19 17 20 21 25 29 28 28 28 28 26 26 25 25 26 27 26 21 20 17 15 13 12 9 7 6 5 5
4 1 4 10 16 16 14 14 13 15 16 17 18 17 18 17 18 22 26 27 28 24 30 29 28 28 27 26 26 28 26 24 22 19 16 14 11 9 7 4 3 4 5
3 2 6 9 12 16 16 13 14 16 17 16 17 16 18 17 21 25 25 27 31 30 26 32 25 25 26 27 30 29 26 22 21 18 15 12 9 7 3 2 3 4 5
6 4 7 11 13 14 14 14 15 16 17 18 17 15 18 19 20 24 26 32 33 34 33 28 27 25 29 32 32 28 24 22 20 17 14 11 7 3 2 3 4 4 7
9 7 7 10 13 13 14 16 17 17 18 17 17 16 21 20 19 25 34 33 30 29 27 28 28 28 33 33 30 26 23 21 19 16 13 9 5 1 3 2 4 6 6
9 9 9 11 13 13 14 15 18 17 16 16 15 17 19 22 21 29 33 30 29 35 30 28 29 32 33 32 28 25 22 20 17 14 11 6 2 2 1 4 5 5 5
8 10 10 13 12 12 12 15 15 16 16 17 16 17 18 21 24 28 31 33 34 36 28 27 27 30 29 29 26 23 21 18 15 12 9 4 2 2 4 5 6 5 4
9 10 13 14 14 13 13 14 14 13 14 17 22 22 17 21 26 29 32 34 28 29 25 26 29 27 26 24 22 21 19 16 14 11 7 4 4 5 6 7 5 3 1
5 9 13 14 14 13 13 16 15 14 17 19 24 15 13 8 29 26 32 31 29 25 26 26 26 27 23 21 18 18 17 15 13 9 6 5 6 7 9 6 3 2 2
9 9 12 15 16 14 16 18 17 17 19 21 20 17 14 34 12 22 30 33 27 25 24 24 22 27 24 25 19 18 17 14 12 8 7 8 9 10 7 4 3 2 4
14 12 12 14 15 16 18 20 20 18 20 25 23 22 28 29 23 21 29 34 29 25 21 20 21 27 22 20 18 16 15 13 10 9 10 11 10 7 5 3 2 3 5
12 9 11 15 13 16 19 20 19 23 26 21 23 25 22 24 19 28 35 33 29 24 24 25 22 19 17 18 19 16 12 11 11 12 11 10 7 5 3 2 3 5 6
12 14 14 16 15 16 20 20 24 24 27 24 25 19 20 19 28 33 37 37 35 32 28 25 23 18 16 14 16 14 13 12 12 12 10 7 5 3 3 3 4 6 7
13 13 15 19 19 17 22 22 23 25 24 22 22 19 18 18 22 24 38 42 37 29 24 20 16 16 13 12 14 12 12 12 13 11 8 6 4 5 5 5 6 8 10
15 10 15 22 19 18 21 22 24 22 18 19 21 28 22 15 18 28 30 34 31 23 15 17 12 16 13 14 13 12 12 13 12 9 6 5 6 7 7 8 9 10 11
16 15 14 18 16 17 19 20 21 20 18 15 19 17 19 23 27 32 30 28 17 14 12 19 10 16 13 11 14 12 11 11 10 8 7 7 8 9 11 12 12 12 13
18 15 15 13 14 17 21 19 18 16 14 16 16 15 18 26 29 31 22 20 10 12 12 14 12 18 17 13 15 11 12 11 11 10 9 10 11 13 14 14 14 15 14
19 18 17 18 19 16 16 16 18 18 16 17 16 15 22 19 22 15 14 15 11 10 11 17 16 17 15 13 13 12 11 10 10 10 12 14 14 16 17 17 18 17 16
15 15 18 18 21 21 19 17 20 18 16 16 16 16 20 15 16 14 13 13 10 8 12 16 18 15 13 14 15 14 13 14 11 14 16 19 19 20 21 21 20 18 18
18 18 18 19 19 20 19 20 19 19 18 16 15 15 14 14 17 17 13 12 14 13 14 12 14 13 12 15 11 11 16 17 16 19 21 23 23 24 24 23 23 22 21
15 16 19 19 19 18 19 23 24 24 23 21 19 17 16 15 16 15 11 12 14 13 12 11 10 10 9 9 14 12 14 13 18 22 19 24 25 26 27 26 27 25 24
14 14 14 14 16 19 19 19 18 19 19 19 19 18 17 16 15 13 11 11 13 13 13 11 8 7 8 10 12 15 13 15 17 20 21 23 24 24 24 28 28 28 26
14 14 15 13 16 17 18 18 18 16 17 17 16 15 13 13 13 12 12 11 11 11 11 9 7 9 10 14 15 18 19 18 20 16 26 23 21 29 25 25 32 31 29
13 13 11 11 11 13 15 15 16 15 15 14 14 13 12 12 12 12 11 9 9 10 9 9 12 11 11 14 14 17 19 21 22 23 26 27 23 26 26 25 31 33 32
15 13 10 9 9 11 13 14 14 14 14 14 14 14 14 14 14 12 11 10 8 7 7 7 7 8 11 14 17 18 18 17 21 21 23 31 27 24 25 27 26 34 33
14 12 11 11 12 12 14 16 16 12 17 16 16 15 14 15 13 11 10 8 5 4 5 8 12 15 17 19 20 22 22 20 22 24 21 30 25 22 24 26 26 27 33
Wind_Direction
300 284 229 218 206 212 211 206 204 207 197 186 182 193 194 189 196 193 185 185 182 176 165 169 163 162 163 162 157 158 156 150 150 145 144 141 134 126 115 94 65 39 26
282 303 217 201 186 183 192 195 195 192 181 184 180 192 195 188 193 183 169 178 188 190 173 171 163 166 167 167 163 162 156 158 153 148 147 142 133 119 104 79 42 26 27
267 192 158 159 171 182 180 181 177 173 176 177 181 191 191 192 190 184 178 167 176 163 171 160 158 172 171 166 165 161 162 159 150 150 149 140 132 123 117 83 45 41 59
257 222 174 166 166 171 171 170 171 173 177 180 181 186 191 190 187 184 183 171 166 163 160 160 168 172 170 168 163 162 160 157 155 156 149 144 136 133 103 42 43 80 81
248 241 205 180 173 170 169 165 170 171 178 179 180 185 195 186 174 175 167 166 163 155 161 167 169 171 169 163 161 160 161 160 162 158 151 150 148 129 11 22 113 98 99
247 235 206 184 175 168 170 164 160 169 178 179 177 192 184 182 161 175 164 168 162 163 160 165 172 169 163 164 162 162 162 166 163 157 156 161 163 335 206 140 122 123 115
234 211 194 192 176 175 168 167 162 170 171 169 175 168 172 173 171 168 170 172 166 163 163 170 170 168 167 165 162 166 167 168 164 165 168 174 219 176 145 149 148 130 114
193 191 190 180 174 178 168 171 166 166 169 168 162 159 150 159 168 168 167 162 169 168 171 173 167 165 164 155 162 166 171 172 173 174 179 198 183 145 165 171 146 134 127
164 186 179 167 170 174 185 179 174 171 165 166 168 159 144 156 148 156 162 171 151 161 167 165 168 162 160 150 165 175 180 179 178 186 199 179 173 165 179 161 149 173 283
121 131 170 177 178 183 195 179 175 165 164 162 164 155 160 151 141 145 150 151 157 155 156 156 161 160 159 161 180 185 181 184 193 200 187 173 174 177 157 159 213 274 307
87 99 136 159 163 173 180 177 169 159 161 153 156 140 138 151 142 142 135 139 152 155 153 149 148 135 148 162 190 191 190 195 202 189 176 181 178 158 172 206 279 305 321
89 94 120 140 148 156 164 159 154 154 155 151 147 146 146 153 184 144 145 149 152 156 163 156 152 155 163 181 184 190 193 191 184 181 182 179 172 177 218 268 301 315 319
75 73 109 140 139 135 145 152 148 150 155 154 153 119 122 173 169 164 153 150 154 160 157 160 170 174 177 165 185 184 186 183 185 182 183 178 195 239 254 276 297 316 319
67 67 107 130 129 131 144 146 148 156 162 147 160 166 165 156 155 162 169 157 145 152 161 179 187 186 171 189 187 186 186 185 184 178 183 202 243 259 262 289 308 307 308
66 84 109 125 118 105 133 141 145 148 165 157 166 190 195 197 177 176 160 163 154 149 161 177 173 180 174 182 181 173 185 180 182 188 210 241 264 270 277 288 289 297 305
72 70 123 134 117 116 128 134 149 143 151 153 168 177 188 182 174 170 159 161 172 169 158 171 177 180 175 168 182 175 188 186 198 215 240 262 279 281 273 276 285 300 294
105 82 110 110 104 128 126 123 135 146 151 157 161 166 166 168 159 159 170 176 167 160 152 159 164 177 171 160 181 182 200 200 219 233 257 278 273 267 269 280 287 288 284
99 94 94 97 99 122 149 140 132 129 145 139 137 152 145 140 155 170 171 176 191 181 173 159 165 171 170 175 185 194 202 211 221 249 261 265 268 270 275 276 278 281 282
99 102 99 104 98 96 101 127 135 132 130 132 137 142 151 157 154 163 172 189 182 168 166 169 173 175 178 187 202 212 225 231 242 264 267 268 271 274 270 272 277 280 280
104 108 109 108 105 96 102 112 124 129 128 132 139 141 152 160 165 169 163 165 167 159 163 169 177 182 185 204 213 228 247 252 252 269 268 267 270 269 272 274 274 275 276
114 112 111 109 109 110 116 114 115 115 120 126 130 135 141 151 156 156 152 151 164 156 159 167 178 190 194 229 240 245 243 250 255 257 253 267 273 274 273 272 273 274 273
126 128 124 120 120 120 121 128 127 126 127 128 130 135 136 139 143 148 159 174 165 173 172 178 185 208 225 243 243 235 243 243 253 264 271 260 266 269 269 276 279 276 273
138 133 130 128 140 144 142 142 140 135 136 141 145 145 141 152 159 169 174 177 184 193 205 210 212 236 240 239 235 252 249 250 254 263 272 265 255 268 264 259 269 279 272
160 156 148 144 149 160 161 161 160 159 157 158 158 160 162 162 166 163 162 170 187 200 210 221 231 236 245 251 260 264 264 265 265 258 260 265 267 263 261 262 259 275 273
179 177 175 176 173 173 172 171 167 166 168 165 161 155 148 140 135 138 143 153 166 185 202 224 249 263 268 271 274 270 264 261 264 268 263 271 275 269 265 261 255 267 272
187 184 188 188 184 175 168 165 161 161 161 160 154 150 147 145 144 147 156 168 182 227 259 269 273 274 275 277 276 275 271 261 266 272 273 263 271 276 270 269 258 257 261